EST,Max TemperatureF,Mean TemperatureF,Min TemperatureF,Max Dew PointF,MeanDew PointF,Min DewpointF,Max Humidity, Mean Humidity, Min Humidity, Max Sea Level PressureIn, Mean Sea Level PressureIn, Min Sea Level PressureIn, Max VisibilityMiles, Mean VisibilityMiles, Min VisibilityMiles, Max Wind SpeedMPH, Mean Wind SpeedMPH, Max Gust SpeedMPH,PrecipitationIn, CloudCover, Events, WindDirDegrees
2014-2-1,39,32,24,27,19,12,75,57,39,30.31,30.21,30.00,10,10,10,9,6,,0.00,2,,217
2014-2-2,42,35,28,34,29,21,93,76,57,30.03,29.91,29.84,10,9,5,13,4,,0.00,5,,236
2014-2-3,35,24,14,30,17,1,100,63,40,30.27,30.17,30.04,10,10,9,10,5,,0.00,2,,23
2014-2-4,35,20,6,21,11,-2,100,65,33,30.43,30.35,30.27,10,10,9,10,1,,0.00,1,,221
2014-2-5,26,22,15,25,15,3,100,75,47,30.33,29.98,29.68,10,5,0,20,9,28,0.00,7,,15
2014-2-6,24,11,-2,16,2,-17,100,67,36,30.22,30.14,29.93,10,10,5,10,4,,0.04,2,,249
2014-2-7,26,10,-5,9,0,-27,100,55,35,30.18,30.13,30.08,10,10,10,16,8,24,0.00,1,,238
2014-2-8,26,18,10,10,1,-6,68,45,31,30.22,30.15,30.11,10,10,3,18,8,23,0.00,1,,266
2014-2-9,28,19,10,21,9,1,100,63,37,30.16,30.07,29.93,10,8,1,10,5,,0.00,4,,52
2014-2-10,24,12,-4,21,7,-20,100,64,39,30.16,29.99,29.87,10,8,1,16,5,21,0.04,5,,313
2014-2-11,19,2,-14,7,-7,-29,100,55,30,30.38,30.24,30.16,10,9,0,18,6,28,0.00,0,,281
2014-2-12,28,6,-16,-2,-16,-29,78,36,14,30.53,30.45,30.38,10,10,10,7,2,,0.01,0,,230
2014-2-13,30,15,0,28,12,-27,100,72,27,30.40,29.93,29.11,10,5,0,28,7,40,0.00,7,,17
2014-2-14,33,30,26,28,23,16,93,74,55,29.65,29.10,28.79,10,8,1,24,13,31,0.52,6,,298
2014-2-15,30,22,15,28,20,0,100,79,49,29.84,29.71,29.47,10,7,1,18,7,24,0.07,4,,1
2014-2-16,28,22,15,25,7,-2,93,53,36,29.91,29.66,29.42,10,8,2,26,14,34,0.00,1,,289
2014-2-17,24,10,-5,-2,-10,-29,65,34,18,30.32,30.15,29.92,10,10,8,18,10,26,0.00,0,,290
2014-2-18,24,6,-11,23,2,-29,100,64,24,30.33,30.14,29.90,10,7,0,15,5,22,0.00,5,,350
2014-2-19,33,19,5,30,19,-9,100,78,35,30.05,29.90,29.72,10,7,0,13,4,,0.27,4,,33
2014-2-20,44,28,12,32,21,0,100,63,34,30.20,30.06,29.78,10,8,0,20,6,25,0.15,3,,235
2014-2-21,37,34,30,36,31,27,100,88,75,30.15,29.95,29.66,10,5,0,13,4,18,0.63,7,Thunderstorm,60
2014-2-22,48,32,17,30,22,3,100,62,34,29.90,29.84,29.78,10,8,0,18,6,30,0.01,1,,208
2014-2-23,46,35,24,25,21,14,93,53,37,29.95,29.86,29.73,10,10,10,12,6,16,0.00,2,,216
2014-2-24,37,28,19,18,7,1,63,40,25,29.87,29.75,29.68,10,10,8,21,10,30,0.00,3,,285
2014-2-25,24,14,3,9,2,-9,100,54,36,29.91,29.87,29.82,10,10,10,18,9,28,0.00,1,,266
2014-2-26,26,11,-4,10,-4,-26,100,51,28,29.89,29.80,29.70,10,10,8,22,7,32,0.00,2,,255
2014-2-27,24,11,-2,18,-3,-29,100,55,27,29.82,29.70,29.56,10,10,2,18,4,26,0.00,2,,243
2014-2-28,19,8,-2,-2,-12,-20,92,38,20,30.41,30.18,29.81,10,10,10,20,11,25,0.00,0,,278